TimeMST,TemperatureF,Dew PointF,Humidity,Sea Level PressureIn,VisibilityMPH,Wind Direction,Wind SpeedMPH,Gust SpeedMPH,PrecipitationIn,Events,Conditions,WindDirDegrees,DateUTC
12:53 AM,9.0,5.0,84,30.66,10.0,West,4.6,-,N/A,,Clear,260,2012-11-23 07:53:00
1:53 AM,9.0,5.0,84,30.67,10.0,Calm,Calm,-,N/A,,Clear,0,2012-11-23 08:53:00
2:53 AM,8.1,3.9,83,30.66,10.0,Calm,Calm,-,N/A,,Clear,0,2012-11-23 09:53:00
3:53 AM,7.0,3.0,84,30.65,10.0,Calm,Calm,-,N/A,,Clear,0,2012-11-23 10:53:00
4:53 AM,7.0,3.0,84,30.64,10.0,NNE,3.5,-,N/A,,Clear,30,2012-11-23 11:53:00
5:53 AM,6.1,1.9,83,30.63,10.0,ENE,5.8,-,N/A,,Clear,70,2012-11-23 12:53:00
6:53 AM,7.0,3.0,84,30.61,10.0,ENE,4.6,-,N/A,,Clear,60,2012-11-23 13:53:00
7:53 AM,8.1,3.9,83,30.61,10.0,East,5.8,-,N/A,,Clear,80,2012-11-23 14:53:00
8:53 AM,12.0,8.1,84,30.59,9.0,East,5.8,-,N/A,,Clear,80,2012-11-23 15:53:00
9:53 AM,15.1,10.0,80,30.56,10.0,ENE,9.2,-,N/A,,Clear,70,2012-11-23 16:53:00
10:53 AM,17.1,12.0,81,30.52,10.0,ENE,10.4,-,N/A,,Clear,70,2012-11-23 17:53:00
11:53 AM,19.0,12.9,77,30.48,10.0,ENE,9.2,-,N/A,,Overcast,70,2012-11-23 18:53:00
12:53 PM,21.9,15.1,75,30.43,10.0,ENE,10.4,-,N/A,,Scattered Clouds,70,2012-11-23 19:53:00
1:53 PM,24.1,16.0,71,30.38,10.0,ENE,13.8,-,N/A,,Mostly Cloudy,70,2012-11-23 20:53:00
2:53 PM,26.1,18.0,71,30.34,10.0,ENE,10.4,-,N/A,,Mostly Cloudy,70,2012-11-23 21:53:00
3:53 PM,28.0,19.9,72,30.30,10.0,East,11.5,-,N/A,,Partly Cloudy,90,2012-11-23 22:53:00
4:53 PM,26.1,19.9,78,30.28,10.0,ENE,9.2,-,N/A,,Overcast,70,2012-11-23 23:53:00
5:53 PM,26.1,19.9,78,30.26,10.0,ENE,9.2,-,N/A,,Mostly Cloudy,70,2012-11-24 00:53:00
6:53 PM,26.1,19.9,78,30.22,10.0,ENE,11.5,-,N/A,,Overcast,60,2012-11-24 01:53:00
7:53 PM,26.1,19.9,78,30.18,10.0,East,10.4,-,N/A,,Overcast,80,2012-11-24 02:53:00
8:53 PM,26.1,19.9,78,30.14,10.0,ENE,6.9,-,N/A,,Mostly Cloudy,70,2012-11-24 03:53:00
9:53 PM,21.9,18.0,85,30.09,10.0,NE,5.8,-,N/A,,Clear,50,2012-11-24 04:53:00
10:53 PM,23.0,18.0,81,30.05,10.0,NE,6.9,-,N/A,,Clear,50,2012-11-24 05:53:00
11:53 PM,21.9,18.0,85,30.03,10.0,NNE,3.5,-,N/A,,Clear,30,2012-11-24 06:53:00